This is the latest recevied weather packets stored in our database for station/object PP5CI-13. If no packets are shown the sender has not sent any weather packets the latest 10 day(s).
| Time | Temp. | Humidity | Pressure | Rain* | Wind** | Luminosity | Snow |
|---|---|---|---|---|---|---|---|
| 1788363945 | - | - | - | 0 mm | - | - | - |
| 1788363322 | 23.33° C | 76% | 1021.2 hPa | 0 mm | - | - | - |
| 1788362721 | 23.33° C | 76% | 1021.2 hPa | 0 mm | - | - | - |
| 1788362121 | - | - | - | 0 mm | - | - | - |
| 1788361521 | 22.78° C | 78% | 1021.2 hPa | 0 mm | - | - | - |
| 1788360941 | 23.89° C | 76% | 1021.2 hPa | 0 mm | - | - | - |
| 1788360322 | 23.33° C | 78% | 1021.2 hPa | 0 mm | - | - | - |
| 1788359721 | 22.78° C | 78% | 1021.2 hPa | 0 mm | - | - | - |
| 1788359138 | 22.78° C | 78% | 1021.2 hPa | 0 mm | - | - | - |
| 1788358521 | 22.78° C | 79% | 1021.2 hPa | 0 mm | - | - | - |
| 1788357989 | 22.22° C | 83% | 1021.2 hPa | 0 mm | - | - | - |
| 1788357321 | 21.67° C | 84% | 1021.2 hPa | 0 mm | - | - | - |
| 1788356745 | 21.11° C | 83% | 1021.2 hPa | 0 mm | - | - | - |
| 1788356138 | 21.11° C | 83% | 1021.2 hPa | 0 mm | - | - | - |
| 1788355537 | 20.56° C | 85% | 1020.2 hPa | 0 mm | - | - | - |
| 1788354921 | 19.44° C | 89% | 1020.2 hPa | 0 mm | - | - | - |
| 1788354465 | 19.44° C | 89% | 1020.2 hPa | 0 mm | - | - | - |
| 1788354190 | 19.44° C | 90% | 1020.2 hPa | 0 mm | - | - | - |
| 1788353266 | - | - | - | 0 mm | - | - | - |
| 1788352568 | 20° C | 90% | 1020.2 hPa | 0 mm | - | - | - |
| 1788351921 | 20.56° C | 87% | 1020.2 hPa | 0 mm | - | - | - |
| 1788351321 | 21.11° C | 87% | 1020.2 hPa | 0 mm | - | - | - |
| 1788350721 | 21.11° C | 89% | 1020.2 hPa | 0 mm | - | - | - |
| 1788350121 | 20.56° C | 90% | 1020.2 hPa | 0 mm | - | - | - |
| 1788349522 | 20.56° C | 92% | 1020.2 hPa | 0 mm | - | - | - |
* Rain latest hour (hover to see other rain measurements)
** Current wind speed in m/s (hover to see current wind gust speed)